ETD80M VABB-OMAA

Flight info

Callsign ETD80M
Flight time 2h 30m
Altitude 40000
Route RAXET2A BISET P574 TOTOX L555 TOLDA M628 TULBU P558 SODEX N563 NOBTO
Aircraft B789/H-SDE1E2E3FGHIJ2J3J4J5M1RWXY/LB1D1

Departure

Time 2026-05-05 02:31
Airport Chhatrapati Shivaji Maharaj International Airport (VABB)

Arrival

Time 2026-05-05 05:01
Airport Zayed International Airport (OMAA)
Time Latitude Longitude Altitude Speed Heading
2026-05-05 01:46 19.09412 72.87292 50 ft 0 kts 299°
2026-05-05 02:20 19.09411 72.87293 27 ft 1 kts 299°
2026-05-05 02:20 19.09403 72.87309 52 ft 3 kts 299°
2026-05-05 02:21 19.09393 72.87328 47 ft 3 kts 299°
2026-05-05 02:21 19.09384 72.87345 47 ft 2 kts 299°
2026-05-05 02:21 19.09376 72.87359 47 ft 3 kts 321°
2026-05-05 02:21 19.09361 72.87366 47 ft 3 kts 13°
2026-05-05 02:22 19.09343 72.87358 47 ft 3 kts 33°
2026-05-05 02:22 19.09332 72.87350 47 ft 1 kts 32°
2026-05-05 02:22 19.09330 72.87349 47 ft 0 kts 32°
2026-05-05 02:25 19.09333 72.87351 55 ft 1 kts 32°
2026-05-05 02:25 19.09351 72.87362 49 ft 5 kts 31°
2026-05-05 02:25 19.09372 72.87380 50 ft 3 kts 46°
2026-05-05 02:25 19.09393 72.87404 48 ft 6 kts 49°
2026-05-05 02:26 19.09420 72.87447 47 ft 7 kts 72°
2026-05-05 02:26 19.09406 72.87493 51 ft 7 kts 125°
2026-05-05 02:26 19.09368 72.87542 51 ft 10 kts 130°
2026-05-05 02:26 19.09318 72.87604 51 ft 12 kts 130°
2026-05-05 02:27 19.09253 72.87668 50 ft 12 kts 162°
2026-05-05 02:27 19.09173 72.87674 52 ft 11 kts 170°
2026-05-05 02:27 19.09142 72.87720 51 ft 7 kts 92°
2026-05-05 02:27 19.09140 72.87775 48 ft 7 kts 108°
2026-05-05 02:28 19.09109 72.87800 47 ft 5 kts 167°
2026-05-05 02:28 19.09058 72.87819 47 ft 8 kts 130°
2026-05-05 02:28 19.09054 72.87841 47 ft 4 kts 84°
2026-05-05 02:28 19.09057 72.87903 49 ft 11 kts 88°
2026-05-05 02:29 19.09060 72.87986 54 ft 12 kts 89°
2026-05-05 02:29 19.09037 72.88045 51 ft 7 kts 155°
2026-05-05 02:29 19.08990 72.88052 49 ft 8 kts 178°
2026-05-05 02:29 19.08927 72.88053 51 ft 10 kts 180°
2026-05-05 02:30 19.08898 72.88043 46 ft 1 kts 228°
2026-05-05 02:30 19.08894 72.88032 51 ft 3 kts 255°
2026-05-05 02:30 19.08889 72.87962 52 ft 27 kts 268°
2026-05-05 02:30 19.08882 72.87525 48 ft 91 kts 270°
2026-05-05 02:31 19.08869 72.86648 49 ft 146 kts 269°
2026-05-05 02:31 19.08859 72.85422 248 ft 172 kts 270°
2026-05-05 02:31 19.08885 72.84211 976 ft 166 kts 270°
2026-05-05 02:31 19.08878 72.82912 1347 ft 187 kts 267°
2026-05-05 02:32 19.08836 72.81532 2184 ft 186 kts 267°
2026-05-05 02:32 19.08798 72.80065 2616 ft 218 kts 268°
2026-05-05 02:32 19.08770 72.78373 3194 ft 241 kts 269°
2026-05-05 02:32 19.08752 72.76548 4049 ft 249 kts 269°
2026-05-05 02:33 19.08797 72.74751 5178 ft 250 kts 275°
2026-05-05 02:33 19.09183 72.72868 5750 ft 271 kts 285°
2026-05-05 02:33 19.09717 72.70957 6744 ft 272 kts 286°
2026-05-05 02:33 19.10221 72.69030 7590 ft 277 kts 282°
2026-05-05 02:34 19.10633 72.67004 8493 ft 281 kts 280°
2026-05-05 02:34 19.11037 72.64976 9308 ft 288 kts 281°
2026-05-05 02:34 19.11479 72.62895 10127 ft 295 kts 282°
2026-05-05 02:34 19.11956 72.60683 10367 ft 322 kts 282°
2026-05-05 02:35 19.12468 72.58275 10568 ft 346 kts 282°
2026-05-05 02:35 19.12996 72.55776 11318 ft 350 kts 282°
2026-05-05 02:35 19.13531 72.53245 12037 ft 355 kts 283°
2026-05-05 02:35 19.14075 72.50678 12771 ft 361 kts 283°
2026-05-05 02:36 19.14626 72.48073 13507 ft 366 kts 283°
2026-05-05 02:36 19.15185 72.45425 14148 ft 371 kts 283°
2026-05-05 02:36 19.15747 72.42761 14923 ft 371 kts 283°
2026-05-05 02:36 19.16314 72.40079 15633 ft 374 kts 283°
2026-05-05 02:37 19.16875 72.37420 16331 ft 376 kts 283°
2026-05-05 02:37 19.17445 72.34711 16987 ft 379 kts 283°
2026-05-05 02:37 19.18020 72.31976 17629 ft 382 kts 284°
2026-05-05 02:37 19.18599 72.29227 18244 ft 385 kts 284°
2026-05-05 02:38 19.19180 72.26459 18791 ft 387 kts 283°
2026-05-05 02:38 19.19767 72.23666 19305 ft 391 kts 283°
2026-05-05 02:38 19.20359 72.20845 19840 ft 393 kts 284°
2026-05-05 02:38 19.20952 72.18014 20387 ft 395 kts 284°
2026-05-05 02:39 19.21550 72.15161 20907 ft 397 kts 284°
2026-05-05 02:39 19.22149 72.12297 21418 ft 400 kts 284°
2026-05-05 02:39 19.22751 72.09418 21911 ft 402 kts 284°
2026-05-05 02:39 19.23355 72.06529 22391 ft 404 kts 284°
2026-05-05 02:40 19.23961 72.03627 22918 ft 405 kts 284°
2026-05-05 02:40 19.24570 72.00709 23338 ft 407 kts 284°
2026-05-05 02:40 19.25173 71.97816 23710 ft 409 kts 284°
2026-05-05 02:40 19.25788 71.94865 24050 ft 412 kts 284°
2026-05-05 02:41 19.26405 71.91900 24391 ft 413 kts 284°
2026-05-05 02:41 19.27024 71.88919 24710 ft 416 kts 284°
2026-05-05 02:41 19.27648 71.85916 25025 ft 418 kts 284°
2026-05-05 02:41 19.28273 71.82904 25352 ft 420 kts 284°
2026-05-05 02:42 19.28899 71.79884 25680 ft 422 kts 283°
2026-05-05 02:42 19.29530 71.76841 25989 ft 424 kts 283°
2026-05-05 02:42 19.30165 71.73777 26317 ft 426 kts 283°
2026-05-05 02:42 19.30800 71.70703 26647 ft 428 kts 283°
2026-05-05 02:43 19.31439 71.67613 26964 ft 431 kts 283°
2026-05-05 02:43 19.32080 71.64507 27298 ft 433 kts 283°
2026-05-05 02:43 19.32724 71.61385 27622 ft 435 kts 283°
2026-05-05 02:43 19.33363 71.58284 27937 ft 437 kts 283°
2026-05-05 02:44 19.34013 71.55130 28251 ft 440 kts 283°
2026-05-05 02:44 19.34665 71.51957 28567 ft 442 kts 283°
2026-05-05 02:44 19.35321 71.48768 28893 ft 444 kts 283°
2026-05-05 02:44 19.35981 71.45555 29213 ft 447 kts 283°
2026-05-05 02:45 19.36640 71.42339 29534 ft 449 kts 283°
2026-05-05 02:45 19.37306 71.39092 29861 ft 451 kts 282°
2026-05-05 02:45 19.37973 71.35835 30142 ft 453 kts 282°
2026-05-05 02:45 19.38642 71.32566 30435 ft 455 kts 282°
2026-05-05 02:46 19.39312 71.29284 30713 ft 457 kts 282°
2026-05-05 02:46 19.39977 71.26028 30985 ft 458 kts 282°
2026-05-05 02:46 19.40653 71.22714 31273 ft 460 kts 282°
2026-05-05 02:46 19.41329 71.19396 31556 ft 462 kts 282°
2026-05-05 02:47 19.42007 71.16065 31832 ft 463 kts 282°
2026-05-05 02:47 19.42687 71.12724 32116 ft 465 kts 282°
2026-05-05 02:47 19.43368 71.09370 32377 ft 467 kts 282°
2026-05-05 02:47 19.44052 71.06003 32645 ft 468 kts 282°
2026-05-05 02:48 19.44738 71.02617 32916 ft 470 kts 283°
2026-05-05 02:48 19.45421 70.99244 33261 ft 469 kts 283°
2026-05-05 02:48 19.46107 70.95856 33493 ft 471 kts 283°
2026-05-05 02:48 19.46795 70.92453 33740 ft 473 kts 283°
2026-05-05 02:49 19.47484 70.89040 33959 ft 474 kts 283°
2026-05-05 02:49 19.48175 70.85618 34161 ft 476 kts 282°
2026-05-05 02:49 19.48856 70.82236 34424 ft 475 kts 282°
2026-05-05 02:49 19.49545 70.78814 34719 ft 474 kts 282°
2026-05-05 02:50 19.50232 70.75399 35009 ft 473 kts 282°
2026-05-05 02:50 19.50917 70.71989 35302 ft 473 kts 282°
2026-05-05 02:50 19.51601 70.68586 35598 ft 472 kts 282°
2026-05-05 02:50 19.52282 70.65188 35887 ft 471 kts 282°
2026-05-05 02:51 19.52960 70.61805 36169 ft 470 kts 282°
2026-05-05 02:51 19.53637 70.58419 36453 ft 469 kts 282°
2026-05-05 02:51 19.54313 70.55038 36730 ft 468 kts 282°
2026-05-05 02:51 19.54988 70.51662 36975 ft 468 kts 282°
2026-05-05 02:52 19.55662 70.48285 37232 ft 468 kts 282°
2026-05-05 02:52 19.56335 70.44905 37510 ft 467 kts 282°
2026-05-05 02:52 19.57004 70.41545 37771 ft 466 kts 282°
2026-05-05 02:52 19.57673 70.38182 38038 ft 466 kts 282°
2026-05-05 02:53 19.58342 70.34815 38298 ft 465 kts 282°
2026-05-05 02:53 19.59008 70.31462 38550 ft 464 kts 282°
2026-05-05 02:53 19.59663 70.28158 38749 ft 464 kts 282°
2026-05-05 02:53 19.60327 70.24808 38930 ft 464 kts 282°
2026-05-05 02:54 19.60989 70.21459 39103 ft 464 kts 282°
2026-05-05 02:54 19.61652 70.18109 39292 ft 464 kts 282°
2026-05-05 02:54 19.62313 70.14759 39467 ft 464 kts 282°
2026-05-05 02:54 19.62975 70.11408 39624 ft 465 kts 282°
2026-05-05 02:55 19.63636 70.08050 39750 ft 465 kts 282°
2026-05-05 02:55 19.64299 70.04687 39892 ft 466 kts 282°
2026-05-05 02:55 19.64966 70.01296 39872 ft 470 kts 282°
2026-05-05 02:56 19.66290 69.94551 39882 ft 463 kts 282°
2026-05-05 02:56 19.67598 69.87878 39876 ft 462 kts 282°
2026-05-05 02:57 19.68906 69.81190 39885 ft 464 kts 282°
2026-05-05 02:57 19.70217 69.74474 39884 ft 465 kts 282°
2026-05-05 02:58 19.71517 69.67798 39877 ft 465 kts 282°
2026-05-05 02:58 19.72825 69.61070 39880 ft 465 kts 282°
2026-05-05 02:59 19.74127 69.54357 39875 ft 465 kts 282°
2026-05-05 02:59 19.75432 69.47616 39870 ft 466 kts 282°
2026-05-05 03:00 19.76738 69.40857 39880 ft 467 kts 282°
2026-05-05 03:00 19.78038 69.34114 39879 ft 466 kts 282°
2026-05-05 03:01 19.79333 69.27378 39883 ft 465 kts 282°
2026-05-05 03:01 19.80625 69.20649 39878 ft 465 kts 281°
2026-05-05 03:02 19.81908 69.13949 39876 ft 467 kts 281°
2026-05-05 03:02 19.83201 69.07185 39875 ft 468 kts 281°
2026-05-05 03:03 19.84493 69.00413 39875 ft 468 kts 281°
2026-05-05 03:03 19.85778 68.93657 39880 ft 464 kts 281°
2026-05-05 03:04 19.87052 68.86952 39886 ft 463 kts 281°
2026-05-05 03:04 19.88323 68.80245 39873 ft 465 kts 281°
2026-05-05 03:05 19.89599 68.73499 39873 ft 466 kts 281°
2026-05-05 03:05 19.90866 68.66784 39878 ft 466 kts 281°
2026-05-05 03:06 19.92138 68.60026 39877 ft 466 kts 281°
2026-05-05 03:06 19.93408 68.53267 39873 ft 466 kts 281°
2026-05-05 03:07 19.94680 68.46485 39874 ft 468 kts 281°
2026-05-05 03:07 19.95951 68.39689 39871 ft 468 kts 281°
2026-05-05 03:08 19.97217 68.32908 39872 ft 467 kts 281°
2026-05-05 03:08 19.98475 68.26151 39871 ft 466 kts 281°
2026-05-05 03:09 19.99731 68.19391 39879 ft 465 kts 281°
2026-05-05 03:09 20.00978 68.12668 39871 ft 468 kts 281°
2026-05-05 03:10 20.02237 68.05865 39873 ft 469 kts 281°
2026-05-05 03:10 20.03493 67.99060 39870 ft 469 kts 281°
2026-05-05 03:11 20.04540 67.93376 39882 ft 467 kts 281°
2026-05-05 03:11 20.05784 67.86608 39875 ft 466 kts 281°
2026-05-05 03:12 20.07025 67.79845 39874 ft 466 kts 281°
2026-05-05 03:12 20.08264 67.73078 39868 ft 466 kts 281°
2026-05-05 03:13 20.09493 67.66346 39874 ft 466 kts 281°
2026-05-05 03:13 20.10727 67.59574 39873 ft 466 kts 281°
2026-05-05 03:14 20.11957 67.52806 39874 ft 467 kts 281°
2026-05-05 03:14 20.13192 67.45997 39875 ft 469 kts 281°
2026-05-05 03:15 20.14426 67.39183 39870 ft 469 kts 281°
2026-05-05 03:15 20.15656 67.32372 39876 ft 468 kts 281°
2026-05-05 03:16 20.16882 67.25564 39872 ft 468 kts 281°
2026-05-05 03:16 20.18105 67.18760 39871 ft 468 kts 281°
2026-05-05 03:17 20.19327 67.11944 39874 ft 469 kts 281°
2026-05-05 03:17 20.20542 67.05156 39868 ft 470 kts 281°
2026-05-05 03:18 20.21762 66.98324 39874 ft 471 kts 281°
2026-05-05 03:18 20.22978 66.91492 39871 ft 468 kts 281°
2026-05-05 03:19 20.24794 66.81268 39862 ft 469 kts 281°
2026-05-05 03:19 20.26003 66.74439 39871 ft 470 kts 281°
2026-05-05 03:20 20.27213 66.67590 39876 ft 470 kts 281°
2026-05-05 03:20 20.28417 66.60756 39871 ft 469 kts 281°
2026-05-05 03:21 20.29616 66.53938 39861 ft 468 kts 281°
2026-05-05 03:21 20.30807 66.47144 39868 ft 470 kts 281°
2026-05-05 03:22 20.32006 66.40291 39869 ft 471 kts 281°
2026-05-05 03:22 20.33208 66.33407 39876 ft 471 kts 281°
2026-05-05 03:23 20.34400 66.26561 39871 ft 470 kts 281°
2026-05-05 03:23 20.35589 66.19719 39861 ft 470 kts 280°
2026-05-05 03:24 20.36777 66.12863 39870 ft 471 kts 280°
2026-05-05 03:24 20.37959 66.06028 39871 ft 472 kts 280°
2026-05-05 03:25 20.39147 65.99139 39870 ft 473 kts 280°
2026-05-05 03:25 20.40331 65.92259 39874 ft 471 kts 280°
2026-05-05 03:26 20.41510 65.85388 39872 ft 471 kts 280°
2026-05-05 03:26 20.42687 65.78513 39871 ft 471 kts 280°
2026-05-05 03:27 20.43862 65.71634 39865 ft 472 kts 280°
2026-05-05 03:27 20.45036 65.64748 39868 ft 472 kts 280°
2026-05-05 03:28 20.46207 65.57858 39872 ft 473 kts 280°
2026-05-05 03:28 20.47378 65.50949 39864 ft 474 kts 280°
2026-05-05 03:29 20.48548 65.44034 39863 ft 474 kts 280°
2026-05-05 03:29 20.49706 65.37166 39870 ft 473 kts 280°
2026-05-05 03:30 20.50868 65.30265 39866 ft 472 kts 280°
2026-05-05 03:30 20.52023 65.23384 39863 ft 471 kts 280°
2026-05-05 03:31 20.53177 65.16489 39867 ft 472 kts 280°
2026-05-05 03:31 20.54329 65.09593 39867 ft 472 kts 280°
2026-05-05 03:32 20.55484 65.02687 39870 ft 473 kts 282°
2026-05-05 03:32 20.57838 64.96221 39875 ft 473 kts 297°
2026-05-05 03:33 20.60935 64.90014 39871 ft 474 kts 297°
2026-05-05 03:33 20.64038 64.83809 39873 ft 474 kts 297°
2026-05-05 03:34 20.67129 64.77603 39874 ft 472 kts 297°
2026-05-05 03:34 20.70219 64.71404 39876 ft 472 kts 297°
2026-05-05 03:35 20.73299 64.65209 39871 ft 473 kts 297°
2026-05-05 03:35 20.76368 64.59036 39866 ft 474 kts 297°
2026-05-05 03:36 20.79464 64.52800 39875 ft 473 kts 297°
2026-05-05 03:36 20.82542 64.46591 39872 ft 472 kts 297°
2026-05-05 03:37 20.85616 64.40384 39878 ft 473 kts 297°
2026-05-05 03:37 20.88693 64.34166 39868 ft 473 kts 297°
2026-05-05 03:38 20.91771 64.27936 39869 ft 474 kts 297°
2026-05-05 03:38 20.94836 64.21728 39866 ft 472 kts 297°
2026-05-05 03:39 20.97892 64.15528 39858 ft 471 kts 297°
2026-05-05 03:39 21.00939 64.09341 39864 ft 473 kts 297°
2026-05-05 03:40 21.04006 64.03106 39867 ft 474 kts 297°
2026-05-05 03:40 21.07069 63.96872 39867 ft 473 kts 297°
2026-05-05 03:41 21.10124 63.90648 39864 ft 471 kts 296°
2026-05-05 03:41 21.13175 63.84423 39863 ft 473 kts 297°
2026-05-05 03:42 21.16236 63.78171 39864 ft 475 kts 297°
2026-05-05 03:42 21.19294 63.71919 39860 ft 472 kts 296°
2026-05-05 03:43 21.22318 63.65727 39864 ft 472 kts 296°
2026-05-05 03:43 21.25364 63.59484 39860 ft 473 kts 296°
2026-05-05 03:44 21.28411 63.53233 39856 ft 473 kts 296°
2026-05-05 03:44 21.31458 63.46973 39864 ft 473 kts 296°
2026-05-05 03:45 21.34499 63.40719 39860 ft 472 kts 296°
2026-05-05 03:45 21.37532 63.34473 39857 ft 472 kts 296°
2026-05-05 03:46 21.40549 63.28255 39854 ft 473 kts 296°
2026-05-05 03:46 21.43587 63.21984 39858 ft 473 kts 296°
2026-05-05 03:47 21.46617 63.15723 39866 ft 472 kts 296°
2026-05-05 03:47 21.49642 63.09464 39860 ft 472 kts 296°
2026-05-05 03:48 21.52662 63.03210 39861 ft 471 kts 296°
2026-05-05 03:48 21.55656 62.96999 39854 ft 471 kts 296°
2026-05-05 03:49 21.58663 62.90756 39856 ft 471 kts 296°
2026-05-05 03:49 21.61673 62.84500 39852 ft 470 kts 296°
2026-05-05 03:50 21.64676 62.78249 39849 ft 471 kts 296°
2026-05-05 03:50 21.67690 62.71970 39854 ft 471 kts 296°
2026-05-05 03:51 21.70687 62.65718 39854 ft 470 kts 296°
2026-05-05 03:51 21.73678 62.59469 39847 ft 470 kts 296°
2026-05-05 03:52 21.76663 62.53229 39851 ft 469 kts 296°
2026-05-05 03:52 21.79637 62.47000 39841 ft 472 kts 296°
2026-05-05 03:53 21.82641 62.40705 39848 ft 473 kts 296°
2026-05-05 03:53 21.84956 62.34119 39855 ft 471 kts 284°
2026-05-05 03:54 21.86543 62.27267 39857 ft 472 kts 283°
2026-05-05 03:54 21.88125 62.20432 39849 ft 468 kts 284°
2026-05-05 03:55 21.89690 62.13665 39843 ft 470 kts 283°
2026-05-05 03:55 21.91263 62.06836 39845 ft 470 kts 284°
2026-05-05 03:56 21.92836 62.00004 39843 ft 470 kts 283°
2026-05-05 03:56 21.94406 61.93169 39845 ft 470 kts 283°
2026-05-05 03:57 21.95975 61.86323 39831 ft 472 kts 283°
2026-05-05 03:57 21.97548 61.79449 39833 ft 472 kts 283°
2026-05-05 03:58 21.99116 61.72578 39836 ft 472 kts 283°
2026-05-05 03:58 22.00674 61.65742 39840 ft 472 kts 283°
2026-05-05 03:59 22.02235 61.58873 39835 ft 472 kts 283°
2026-05-05 03:59 22.03793 61.52008 39835 ft 470 kts 284°
2026-05-05 04:00 22.05341 61.45168 39826 ft 469 kts 284°
2026-05-05 04:00 22.06883 61.38344 39832 ft 468 kts 284°
2026-05-05 04:01 22.08423 61.31516 39830 ft 469 kts 284°
2026-05-05 04:01 22.09956 61.24706 39824 ft 471 kts 283°
2026-05-05 04:02 22.11499 61.17834 39830 ft 472 kts 283°
2026-05-05 04:02 22.13041 61.10952 39823 ft 471 kts 283°
2026-05-05 04:03 22.14576 61.04088 39833 ft 470 kts 283°
2026-05-05 04:03 22.16105 60.97236 39824 ft 470 kts 283°
2026-05-05 04:04 22.17631 60.90384 39820 ft 470 kts 283°
2026-05-05 04:04 22.19152 60.83538 39821 ft 467 kts 284°
2026-05-05 04:05 22.20660 60.76740 39830 ft 465 kts 283°
2026-05-05 04:05 22.22166 60.69936 39820 ft 466 kts 283°
2026-05-05 04:06 22.23669 60.63129 39829 ft 466 kts 283°
2026-05-05 04:06 22.25159 60.56365 39821 ft 466 kts 283°
2026-05-05 04:07 22.26656 60.49558 39831 ft 466 kts 283°
2026-05-05 04:07 22.28150 60.42752 39823 ft 466 kts 283°
2026-05-05 04:08 22.29401 60.37043 39827 ft 467 kts 283°
2026-05-05 04:08 22.30886 60.30245 39824 ft 468 kts 283°
2026-05-05 04:09 22.32382 60.23389 39830 ft 469 kts 283°
2026-05-05 04:09 22.33872 60.16544 39815 ft 468 kts 283°
2026-05-05 04:10 22.35357 60.09705 39812 ft 467 kts 283°
2026-05-05 04:10 22.36841 60.02860 39806 ft 466 kts 283°
2026-05-05 04:11 22.38306 59.96087 39815 ft 466 kts 283°
2026-05-05 04:11 22.39776 59.89267 39802 ft 466 kts 283°
2026-05-05 04:12 22.41243 59.82439 39799 ft 466 kts 283°
2026-05-05 04:12 22.42708 59.75612 39793 ft 466 kts 283°
2026-05-05 04:13 22.44170 59.68783 39801 ft 466 kts 283°
2026-05-05 04:13 22.45627 59.61960 39801 ft 465 kts 283°
2026-05-05 04:14 22.47081 59.55139 39807 ft 466 kts 283°
2026-05-05 04:14 22.48524 59.48352 39817 ft 464 kts 283°
2026-05-05 04:15 22.49967 59.41556 39810 ft 464 kts 283°
2026-05-05 04:15 22.51407 59.34753 39822 ft 465 kts 283°
2026-05-05 04:16 22.52849 59.27926 39824 ft 465 kts 282°
2026-05-05 04:16 22.54291 59.21090 39842 ft 465 kts 282°
2026-05-05 04:17 22.55726 59.14264 39838 ft 466 kts 282°
2026-05-05 04:17 22.57165 59.07411 39840 ft 467 kts 282°
2026-05-05 04:18 22.58588 59.00612 39839 ft 467 kts 282°
2026-05-05 04:18 22.60020 58.93760 39840 ft 467 kts 282°
2026-05-05 04:19 22.61449 58.86905 39840 ft 467 kts 282°
2026-05-05 04:19 22.62869 58.80081 39840 ft 462 kts 282°
2026-05-05 04:20 22.64276 58.73301 39835 ft 461 kts 282°
2026-05-05 04:20 22.65671 58.66563 39832 ft 462 kts 282°
2026-05-05 04:21 22.67116 58.59781 39853 ft 461 kts 286°
2026-05-05 04:21 22.68884 58.53088 39839 ft 463 kts 285°
2026-05-05 04:22 22.70638 58.46378 39839 ft 463 kts 285°
2026-05-05 04:22 22.72403 58.39649 39856 ft 465 kts 285°
2026-05-05 04:23 22.74161 58.32911 39842 ft 464 kts 285°
2026-05-05 04:23 22.75917 58.26184 39841 ft 464 kts 285°
2026-05-05 04:24 22.77648 58.19529 39850 ft 460 kts 285°
2026-05-05 04:25 22.80251 58.09505 39847 ft 461 kts 285°
2026-05-05 04:25 22.81985 58.02812 39853 ft 461 kts 285°
2026-05-05 04:26 22.83717 57.96113 39855 ft 462 kts 284°
2026-05-05 04:26 22.85452 57.89393 39857 ft 464 kts 284°
2026-05-05 04:27 22.87188 57.82653 39859 ft 464 kts 284°
2026-05-05 04:27 22.88919 57.75920 39866 ft 463 kts 284°
2026-05-05 04:28 22.90588 57.69237 39872 ft 462 kts 284°
2026-05-05 04:28 22.92259 57.62526 39877 ft 460 kts 284°
2026-05-05 04:29 22.93928 57.55826 39902 ft 461 kts 284°
2026-05-05 04:29 22.95597 57.49104 39888 ft 461 kts 284°
2026-05-05 04:30 22.97264 57.42384 39888 ft 461 kts 284°
2026-05-05 04:30 22.98924 57.35670 39879 ft 461 kts 284°
2026-05-05 04:31 23.00180 57.28876 39902 ft 459 kts 271°
2026-05-05 04:31 23.00364 57.21935 39897 ft 461 kts 271°
2026-05-05 04:32 23.00536 57.14974 39888 ft 461 kts 271°
2026-05-05 04:32 23.00705 57.08060 39880 ft 462 kts 271°
2026-05-05 04:33 23.00932 57.01110 39878 ft 460 kts 277°
2026-05-05 04:33 23.02694 56.94433 39893 ft 462 kts 295°
2026-05-05 04:34 23.05622 56.88242 39874 ft 461 kts 295°
2026-05-05 04:34 23.08584 56.82051 39863 ft 462 kts 295°
2026-05-05 04:35 23.11536 56.75835 39874 ft 464 kts 295°
2026-05-05 04:35 23.14497 56.69612 39856 ft 463 kts 295°
2026-05-05 04:36 23.17446 56.63396 39828 ft 458 kts 295°
2026-05-05 04:36 23.18905 56.60322 39099 ft 459 kts 295°
2026-05-05 04:36 23.20371 56.57227 38408 ft 461 kts 295°
2026-05-05 04:36 23.21833 56.54141 37695 ft 458 kts 295°
2026-05-05 04:37 23.23290 56.51062 36967 ft 457 kts 295°
2026-05-05 04:37 23.24740 56.47998 36302 ft 454 kts 295°
2026-05-05 04:37 23.26165 56.44985 35671 ft 452 kts 295°
2026-05-05 04:37 23.27597 56.41952 35038 ft 450 kts 295°
2026-05-05 04:38 23.29023 56.38933 34402 ft 448 kts 295°
2026-05-05 04:38 23.30444 56.35920 33766 ft 446 kts 295°
2026-05-05 04:38 23.31855 56.32930 33122 ft 442 kts 295°
2026-05-05 04:38 23.33253 56.29966 32488 ft 438 kts 295°
2026-05-05 04:39 23.34636 56.27029 31896 ft 434 kts 295°
2026-05-05 04:39 23.36007 56.24116 31295 ft 431 kts 295°
2026-05-05 04:39 23.37369 56.21220 30717 ft 428 kts 295°
2026-05-05 04:39 23.38720 56.18348 30131 ft 425 kts 295°
2026-05-05 04:40 23.40057 56.15501 29502 ft 422 kts 295°
2026-05-05 04:40 23.41389 56.12665 28927 ft 417 kts 295°
2026-05-05 04:40 23.42701 56.09870 28349 ft 412 kts 295°
2026-05-05 04:40 23.43997 56.07108 27789 ft 407 kts 295°
2026-05-05 04:41 23.45277 56.04376 27250 ft 403 kts 295°
2026-05-05 04:41 23.46544 56.01673 26708 ft 399 kts 295°
2026-05-05 04:41 23.47794 55.99002 26171 ft 395 kts 295°
2026-05-05 04:41 23.49038 55.96344 25634 ft 391 kts 295°
2026-05-05 04:42 23.50265 55.93721 25115 ft 388 kts 296°
2026-05-05 04:42 23.51485 55.91113 24617 ft 385 kts 296°
2026-05-05 04:42 23.52680 55.88555 24100 ft 382 kts 296°
2026-05-05 04:42 23.53880 55.85984 23598 ft 379 kts 296°
2026-05-05 04:43 23.55276 55.83569 23080 ft 376 kts 310°
2026-05-05 04:43 23.57076 55.81524 22559 ft 371 kts 313°
2026-05-05 04:43 23.58908 55.79561 22070 ft 368 kts 314°
2026-05-05 04:43 23.60743 55.77621 21601 ft 367 kts 314°
2026-05-05 04:44 23.62557 55.75668 21105 ft 366 kts 314°
2026-05-05 04:44 23.64355 55.73715 20646 ft 361 kts 314°
2026-05-05 04:44 23.66129 55.71799 20176 ft 356 kts 314°
2026-05-05 04:44 23.67885 55.69910 19715 ft 353 kts 314°
2026-05-05 04:45 23.69633 55.68025 19266 ft 353 kts 314°
2026-05-05 04:45 23.71354 55.66165 18799 ft 352 kts 314°
2026-05-05 04:45 23.73085 55.64294 18352 ft 348 kts 314°
2026-05-05 04:45 23.74793 55.62450 17879 ft 343 kts 314°
2026-05-05 04:46 23.76500 55.60605 17414 ft 341 kts 314°
2026-05-05 04:46 23.78159 55.58810 16993 ft 340 kts 314°
2026-05-05 04:46 23.79841 55.56989 16553 ft 339 kts 314°
2026-05-05 04:46 23.81503 55.55192 16094 ft 333 kts 314°
2026-05-05 04:47 23.83129 55.53402 15688 ft 331 kts 310°
2026-05-05 04:47 23.84485 55.51369 15262 ft 333 kts 304°
2026-05-05 04:47 23.85854 55.49336 14833 ft 330 kts 306°
2026-05-05 04:47 23.87204 55.47353 14570 ft 324 kts 306°
2026-05-05 04:48 23.88541 55.45345 14170 ft 329 kts 305°
2026-05-05 04:48 23.89869 55.43339 13748 ft 323 kts 305°
2026-05-05 04:48 23.91185 55.41360 13301 ft 320 kts 306°
2026-05-05 04:48 23.92497 55.39394 12881 ft 321 kts 306°
2026-05-05 04:49 23.93811 55.37421 12460 ft 321 kts 306°
2026-05-05 04:49 23.95094 55.35491 12048 ft 314 kts 306°
2026-05-05 04:49 23.96391 55.33541 11641 ft 314 kts 307°
2026-05-05 04:49 23.97677 55.31606 11229 ft 314 kts 307°
2026-05-05 04:50 23.98943 55.29701 10859 ft 312 kts 307°
2026-05-05 04:50 24.00213 55.27791 10723 ft 309 kts 307°
2026-05-05 04:50 24.01483 55.25878 10564 ft 311 kts 307°
2026-05-05 04:50 24.02734 55.23991 10189 ft 302 kts 308°
2026-05-05 04:51 24.03950 55.22157 9846 ft 293 kts 308°
2026-05-05 04:51 24.05130 55.20378 9500 ft 284 kts 308°
2026-05-05 04:51 24.06274 55.18654 9171 ft 276 kts 308°
2026-05-05 04:51 24.07381 55.16984 8861 ft 266 kts 308°
2026-05-05 04:52 24.08465 55.15349 8559 ft 266 kts 308°
2026-05-05 04:52 24.09558 55.13702 8255 ft 267 kts 308°
2026-05-05 04:52 24.10649 55.12053 7954 ft 266 kts 308°
2026-05-05 04:52 24.11721 55.10432 7650 ft 263 kts 308°
2026-05-05 04:53 24.12801 55.08801 7339 ft 265 kts 308°
2026-05-05 04:53 24.13883 55.07167 7048 ft 265 kts 308°
2026-05-05 04:53 24.14962 55.05535 6736 ft 264 kts 308°
2026-05-05 04:53 24.16010 55.03947 6423 ft 258 kts 308°
2026-05-05 04:54 24.17062 55.02356 6120 ft 256 kts 308°
2026-05-05 04:54 24.18093 55.00795 5831 ft 248 kts 308°
2026-05-05 04:54 24.19085 54.99292 5769 ft 252 kts 308°
2026-05-05 04:54 24.20177 54.97659 5540 ft 271 kts 309°
2026-05-05 04:55 24.21353 54.96051 5351 ft 269 kts 311°
2026-05-05 04:55 24.22521 54.94452 5263 ft 269 kts 310°
2026-05-05 04:55 24.23669 54.92843 5172 ft 268 kts 310°
2026-05-05 04:55 24.24806 54.91239 5076 ft 261 kts 310°
2026-05-05 04:56 24.25898 54.89695 4932 ft 255 kts 309°
2026-05-05 04:56 24.26979 54.88168 4628 ft 250 kts 309°
2026-05-05 04:56 24.28039 54.86670 4324 ft 248 kts 309°
2026-05-05 04:56 24.29084 54.85195 4003 ft 248 kts 309°
2026-05-05 04:57 24.30154 54.83683 3680 ft 248 kts 309°
2026-05-05 04:57 24.31202 54.82203 3369 ft 248 kts 309°
2026-05-05 04:57 24.32257 54.80712 3076 ft 248 kts 309°
2026-05-05 04:57 24.33310 54.79226 2757 ft 245 kts 309°
2026-05-05 04:58 24.34325 54.77787 2479 ft 233 kts 309°
2026-05-05 04:58 24.35286 54.76429 2198 ft 214 kts 309°
2026-05-05 04:58 24.36141 54.75219 1919 ft 188 kts 309°
2026-05-05 04:58 24.36897 54.74157 1691 ft 166 kts 309°
2026-05-05 04:59 24.37580 54.73199 1490 ft 156 kts 308°
2026-05-05 04:59 24.38247 54.72262 1279 ft 156 kts 308°
2026-05-05 04:59 24.38905 54.71333 1082 ft 153 kts 308°
2026-05-05 04:59 24.39562 54.70411 939 ft 154 kts 308°
2026-05-05 05:00 24.40224 54.69482 786 ft 156 kts 306°
2026-05-05 05:00 24.40882 54.68559 634 ft 152 kts 304°
2026-05-05 05:00 24.41493 54.67676 387 ft 146 kts 304°
2026-05-05 05:00 24.42137 54.66777 168 ft 153 kts 304°
2026-05-05 05:01 24.42740 54.65907 92 ft 120 kts 309°
2026-05-05 05:01 24.43156 54.65328 96 ft 82 kts 308°
2026-05-05 05:01 24.43457 54.64906 95 ft 59 kts 308°
2026-05-05 05:01 24.43674 54.64605 94 ft 42 kts 310°
2026-05-05 05:02 24.43877 54.64443 94 ft 32 kts 339°
2026-05-05 05:02 24.44057 54.64362 97 ft 21 kts 324°
2026-05-05 05:02 24.44125 54.64299 97 ft 6 kts
2026-05-05 05:02 24.44146 54.64311 97 ft 4 kts 30°
2026-05-05 05:03 24.44169 54.64331 99 ft 6 kts 39°
2026-05-05 05:03 24.44229 54.64389 98 ft 15 kts 40°
2026-05-05 05:03 24.44268 54.64443 99 ft 13 kts 76°
2026-05-05 05:03 24.44330 54.64545 99 ft 13 kts 38°
2026-05-05 05:04 24.44406 54.64609 100 ft 14 kts 38°
2026-05-05 05:04 24.44488 54.64681 99 ft 16 kts 38°
2026-05-05 05:04 24.44582 54.64729 100 ft 10 kts 343°
2026-05-05 05:04 24.44609 54.64693 98 ft 9 kts 302°
2026-05-05 05:05 24.44636 54.64650 99 ft 12 kts 308°
2026-05-05 05:05 24.44699 54.64580 98 ft 14 kts 321°
2026-05-05 05:05 24.44785 54.64529 99 ft 15 kts 340°
2026-05-05 05:05 24.44850 54.64503 101 ft 7 kts 340°
2026-05-05 05:06 24.44861 54.64488 99 ft 2 kts 283°
2026-05-05 05:06 24.44862 54.64458 99 ft 4 kts 251°
2026-05-05 05:06 24.44851 54.64422 99 ft 1 kts 253°
2026-05-05 05:06 24.44848 54.64411 98 ft 0 kts 253°